Weather History for KUCP - September, 2012

Change the Weather History Date:

Sunday, September 16, 2012

  Actual Average Record
Temperature  
Mean Temperature 54 °F -  
Max Temperature 70 °F 74 °F 97 °F (1939)
Min Temperature 39 °F 51 °F 33 °F (1966)
Degree Days  
Heating Degree Days 10    
Growing Degree Days 4 (Base 50)    
Moisture  
Dew Point 44 °F    
Average Humidity 88    
Maximum Humidity 100    
Minimum Humidity 42    
Precipitation  
Precipitation 0.00 in - - ()
Sea Level Pressure  
Sea Level Pressure 30.21 in    
Wind  
Wind Speed 0 mph (SE)    
Max Wind Speed 6 mph    
Max Gust Speed -    
Visibility 5 miles    
Events Fog    
Averages and records for this station are not official NWS values.
T = Trace of Precipitation, MM = Missing Value Source: NWS Daily Summary

Daily Weather History Graph

Daily Weather History Graph

Search for Another Location

Airport or City:

Trip Planner

Search our weather history database for the weather conditions in past years. The results will help you decide how hot, cold, wet, or windy it might be!

Date:

Astronomy

Sep. 16, 2012 Rise Set
Actual Time 7:03 AM EDT 7:28 PM EDT
Civil Twilight 6:36 AM EDT 7:55 PM EDT
Nautical Twilight 6:03 AM EDT 8:28 PM EDT
Astronomical Twilight 5:30 AM EDT 9:01 PM EDT
Moon 7:42 AM EDT (9/16) 7:31 PM EDT (9/16)
Length of Visible Light 13h 19m
Length of Day
12h 24m
New Moon, 0% of the Moon is Illuminated
Sep 16
New Moon
Sep 22
First Quarter
Sep 29
Full
Oct 8
Last Quarter
Oct 15
New

Hourly Weather History & Observations

Time (EDT) Temp. Dew Point Humidity Pressure Visibility Wind Dir Wind Speed Gust Speed Precip Events Conditions
12:56 AM 45.0 °F 43.9 °F 96% 30.26 in 8.0 mi Calm Calm - N/A   Clear
1:56 AM 43.9 °F 43.9 °F 100% 30.26 in 9.0 mi Calm Calm - N/A   Clear
2:38 AM 42.8 °F 42.8 °F 100% 30.20 in 1.8 mi Calm Calm - N/A   Clear
2:44 AM 42.8 °F 42.8 °F 100% 30.20 in 1.0 mi Calm Calm - N/A   Clear
2:49 AM 42.8 °F 42.8 °F 100% 30.20 in 1.5 mi Calm Calm - N/A   Clear
2:56 AM 41.9 °F 41.9 °F 100% 30.25 in 3.0 mi Calm Calm - N/A   Clear
3:56 AM 41.9 °F 41.9 °F 100% 30.24 in 7.0 mi Calm Calm - N/A   Clear
4:56 AM 41.0 °F 41.0 °F 100% 30.25 in 0.5 mi Calm Calm - N/A Fog Fog
5:03 AM 42.8 °F 41.0 °F 93% 30.20 in 0.2 mi Calm Calm - N/A Fog Fog
5:13 AM 42.8 °F 41.0 °F 93% 30.20 in 0.2 mi Calm Calm - N/A Fog Fog
5:33 AM 41.0 °F 41.0 °F 100% 30.19 in 0.2 mi Calm Calm - N/A Fog Fog
5:39 AM 41.0 °F 41.0 °F 100% 30.20 in 0.5 mi Calm Calm - N/A Fog Fog
5:56 AM 41.0 °F 41.0 °F 100% 30.25 in 0.5 mi Calm Calm - N/A Fog Fog
6:09 AM 39.2 °F 39.2 °F 100% 30.20 in 1.0 mi Calm Calm - N/A   Clear
6:18 AM 41.0 °F 39.2 °F 93% 30.20 in 1.5 mi Calm Calm - N/A   Clear
6:22 AM 39.2 °F 39.2 °F 100% 30.21 in 3.0 mi Calm Calm - N/A   Clear
6:29 AM 41.0 °F 41.0 °F 100% 30.21 in 1.0 mi Calm Calm - N/A   Clear
6:31 AM 41.0 °F 41.0 °F 100% 30.21 in 0.5 mi Calm Calm - N/A Fog Fog
6:36 AM 41.0 °F 41.0 °F 100% 30.21 in 0.2 mi Calm Calm - N/A Fog Fog
6:46 AM 41.0 °F 41.0 °F 100% 30.21 in 0.2 mi Calm Calm - N/A Fog Fog
6:56 AM 39.9 °F 39.9 °F 100% 30.26 in 0.2 mi Calm Calm - N/A Fog Fog
7:04 AM 39.2 °F 39.2 °F 100% 30.21 in 0.2 mi Calm Calm - N/A Fog Fog
7:10 AM 39.2 °F 39.2 °F 100% 30.21 in 2.0 mi Calm Calm - N/A   Partly Cloudy
7:17 AM 39.2 °F 39.2 °F 100% 30.21 in 7.0 mi Calm Calm - N/A   Clear
8:23 AM 44.6 °F 44.6 °F 100% 30.21 in 1.0 mi Calm Calm - N/A   Clear
8:34 AM 46.4 °F 46.4 °F 100% 30.21 in 1.5 mi Calm Calm - N/A   Clear
8:41 AM 46.4 °F 46.4 °F 100% 30.22 in 3.0 mi Calm Calm - N/A   Clear
8:56 AM 48.9 °F 48.9 °F 100% 30.27 in 10.0 mi Calm Calm - N/A   Clear
9:56 AM 57.9 °F 50.0 °F 75% 30.26 in 10.0 mi Calm Calm - N/A   Clear
10:56 AM 63.9 °F 50.9 °F 63% 30.25 in 10.0 mi SW 4.6 mph - N/A   Clear
11:56 AM 66.9 °F 46.9 °F 49% 30.24 in 10.0 mi Variable 4.6 mph - N/A   Clear
12:56 PM 68.0 °F 46.9 °F 47% 30.22 in 10.0 mi ESE 4.6 mph - N/A   Clear
2:56 PM 70.0 °F 46.9 °F 44% 30.18 in 10.0 mi East 5.8 mph - N/A   Clear
3:56 PM 70.0 °F 46.9 °F 44% 30.16 in 10.0 mi Variable 3.5 mph - N/A   Clear
4:56 PM 70.9 °F 46.9 °F 42% 30.15 in 10.0 mi Calm Calm - N/A   Clear
5:56 PM 70.0 °F 47.8 °F 45% 30.14 in 10.0 mi Calm Calm - N/A   Clear
6:56 PM 65.8 °F 52.0 °F 61% 30.15 in 10.0 mi Calm Calm - N/A   Clear
7:56 PM 59.0 °F 50.9 °F 74% 30.16 in 10.0 mi Calm Calm - N/A   Clear
8:56 PM 54.0 °F 50.9 °F 89% 30.16 in 10.0 mi Calm Calm - N/A   Clear
9:56 PM 52.0 °F 48.9 °F 89% 30.16 in 10.0 mi Calm Calm - N/A   Clear
10:56 PM 50.9 °F 48.9 °F 93% 30.16 in 10.0 mi Calm Calm - N/A   Clear
11:56 PM 50.0 °F 48.9 °F 96% 30.15 in 10.0 mi Calm Calm - N/A   Clear